This demonstration page uses our WeatherBlox Daily Observations layout. Learn more.

38.89511, -77.03637

Hourly Observations for October 30, 2015

Temp ( °F °C ) Dew Point ( °F °C ) Humidity (%) Winds ( mph kmh ) Pressure ( in mb ) Visibility ( mi km ) Precip ( " mm )
12:52 am 00:52 Cloudy 56 13.3 40 4.4 55 55 NNW 8 13 29.85 1011 10 16.0934 0 0
1:52 am 01:52 Partly Cloudy 56 13.3 39 3.9 53 53 NW 10 17 29.86 1011 10 16.0934 0 0
2:52 am 02:52 Mostly Clear 55 12.8 39 3.9 55 55 NNW 14 22 29.88 1012 10 16.0934 0 0
3:52 am 03:52 Clear 52 11.1 39 3.9 61 61 NNW 13 20 29.9 1013 10 16.0934 0 0
4:32 am 04:32 Mostly Clear 52 11 36 2 54 54 NW 13 20 29.91 1013 10 16.0934 0 0
4:52 am 04:52 Mostly Clear 52 11.1 36 2.2 55 55 NNW 16 26 29.92 1013 10 16.0934 0 0
5:52 am 05:52 Clear 50 10 36 2.2 59 59 NNW 12 19 29.96 1014 10 16.0934 0 0
6:52 am 06:52 Mostly Clear 49 9.4 35 1.7 59 59 NNW 9 15 29.98 1015 10 16.0934 0 0
7:52 am 07:52 Mostly Sunny 50 10 34 1.1 54 54 NW 10 17 30 1016 10 16.0934 0 0
8:52 am 08:52 Sunny 51 10.6 34 1.1 52 52 NW 8 13 30.03 1017 10 16.0934 0 0
9:52 am 09:52 Sunny 52 11.1 35 1.7 53 53 NW 17 28 30.05 1018 10 16.0934 0 0
10:52 am 10:52 Mostly Sunny 55 12.8 36 2.2 49 49 NW 9 15 30.06 1018 10 16.0934 0 0
11:52 am 11:52 Mostly Sunny 56 13.3 37 2.8 49 49 NW 14 22 30.07 1018 10 16.0934 0 0
12:52 pm 12:52 Mostly Sunny 59 15 38 3.3 46 46 NNW 12 19 30.06 1018 10 16.0934 0 0
1:52 pm 13:52 Partly Cloudy 60 15.6 38 3.3 44 44 NNW 21 33 30.05 1018 10 16.0934 0 0
2:52 pm 14:52 Partly Cloudy 60 15.6 38 3.3 44 44 WNW 15 24 30.04 1017 10 16.0934 0 0
3:52 pm 15:52 Partly Cloudy 57 13.9 37 2.8 47 47 NW 13 20 30.05 1018 10 16.0934 0 0
4:52 pm 16:52 Partly Cloudy 57 13.9 38 3.3 49 49 NNW 14 22 30.06 1018 10 16.0934 0 0
5:29 pm 17:29 Mostly Cloudy 55 13 37 3 51 51 NNW 15 24 30.09 1019 10 16.0934 0 0
5:52 pm 17:52 Mostly Cloudy 56 13.3 37 2.8 49 49 NW 16 26 30.1 1019 10 16.0934 0 0
6:52 pm 18:52 Mostly Clear 53 11.7 37 2.8 55 55 NNW 13 20 30.13 1020 10 16.0934 0 0
7:52 pm 19:52 Mostly Clear 52 11.1 37 2.8 57 57 NNW 9 15 30.14 1021 10 16.0934 0 0
8:52 pm 20:52 Mostly Clear 52 11.1 37 2.8 57 57 WNW 7 11 30.17 1022 10 16.0934 0 0
9:52 pm 21:52 Clear 50 10 38 3.3 63 63 N 7 11 30.16 1021 10 16.0934 0 0
10:52 pm 22:52 Mostly Clear 49 9.4 39 3.9 69 69 N 5 7 30.14 1021 10 16.0934 0 0
11:52 pm 23:52 Clear 47 8.3 38 3.3 71 71 NNW 6 9 30.13 1020 10 16.0934 0 0

Powered by AerisWeather